Regional Weather Roundup
Issued by NWS

Home | Current Version | Previous Version | Text Only | Print | Product List | Glossary Off
Versions: 1 2 3 4 5 6 7 8 9 10 11 12 13 14 15 16 17 18 19 20 21 22 23 24 25 26 27 28 29 30 31 32 33 34 35 36 37 38 39 40 41 42 43 44 45 46 47 48 49 50

010
ASUS45 KABQ 200001
RWRNM
NEW MEXICO REGIONAL WEATHER ROUNDUP
NATIONAL WEATHER SERVICE ALBUQUERQUE NM
500 PM MST SUN FEB 19 2017

NOTE: "FAIR" MEANS FEW OR NO CLOUDS BELOW 12,000 FEET AGL WITH NO
       SIGNIFICANT WEATHER OR OBSTRUCTIONS TO VISION.

      THIS PRODUCT IS RELEASED AS TWO VERSIONS.  ONE VERSION NEAR
      THE TOP OF THE HOUR CONTAINING PRELIMINARY DATA FROM ALBUQUERQUE
      AND OTHER STATIONS.  A FINAL VERSION WITH ADDITIONAL DATA IS
      ISSUED ABOUT 10 MINUTES AFTER THE HOUR.

NMZ501-503-504-510>518-200100-
NORTHWEST PLATEAU/NORTHCENTRAL MOUNTAINS

CITY           SKY/WX    TMP DP  RH WIND       PRES   REMARKS
FARMINGTON     PTSUNNY   41  33  73 NW18G24   29.86R
6HR MIN TEMP:  41; 6HR MAX TEMP:  52; 6HR PCP: TRACE;

LOS ALAMOS     FAIR      44  21  40 SW13G21   29.86R
SANTA FE       MOCLDY    42  33  70 SW6       29.85F
6HR MIN TEMP:  37; 6HR MAX TEMP:  51; 6HR PCP: TRACE;

TAOS             N/A     43  27  52 SW3       29.84R
ANGEL FIRE     FAIR      34  27  75 W6        29.84R WCI  29

$$
NMZ402-403-502-505>509-200100-
WESTCENTRAL MOUNTAINS/SOUTHWEST MOUNTAINS

CITY           SKY/WX    TMP DP  RH WIND       PRES   REMARKS
GALLUP         CLOUDY    39  32  76 SW18G25   29.92R WCI  30
6HR MIN TEMP:  37; 6HR MAX TEMP:  48; 6HR PCP:  0.02;

GRANTS         PTSUNNY   42  28  58 NW7G18    29.91R
SILVER CITY    PTSUNNY   49  32  51 W14       29.96R

$$
NMZ407-409-411-412-200100-
SOUTHERN DESERTS

CITY           SKY/WX    TMP DP  RH WIND       PRES   REMARKS
DEMING         FAIR      53  33  46 W18       29.95R
6HR MIN TEMP:  49; 6HR MAX TEMP:  55;

LAS CRUCES     FAIR      53  31  44 W13G20    29.95R
HOLLOMAN AFB   FAIR      55  30  38 SW15      29.94R
ALAMOGORDO     FAIR      55  28  35 SW13      29.92R
T OR C         FAIR      54  28  36 SW5       29.88R
6HR MIN TEMP:  50; 6HR MAX TEMP:  55; 6HR PCP: TRACE;


$$
NMZ519>523-200100-
CENTRAL VALLEYS/CENTRAL HIGHLANDS

CITY           SKY/WX    TMP DP  RH WIND       PRES   REMARKS
ALBUQUERQUE    MOCLDY    51  28  41 CALM      29.86R
6HR MIN TEMP:  45; 6HR MAX TEMP:  53; 6HR PCP: TRACE;

DOUBLE EAGLE   MOCLDY    48  28  46 NW8       29.87R
MORIARTY ARPT  CLOUDY    47  28  47 W22       29.88R
6HR MIN TEMP:  47; 6HR MAX TEMP:  55;

CLINES CORNERS LGT RAIN  41  27  57 NW24G31   29.88R
6HR MIN TEMP:  40; 6HR MAX TEMP:  50; 6HR PCP: TRACE;

BELEN          MOCLDY    49  29  45 W18G25    29.89R
6HR MIN TEMP:  48; 6HR MAX TEMP:  56;

SOCORRO        CLOUDY    54  25  32 S8        29.87R
6HR MIN TEMP:  45; 6HR MAX TEMP:  56;


$$
NMZ524>526-539-540-200100-
SOUTHCENTRAL MOUNTAINS

CITY           SKY/WX    TMP DP  RH WIND       PRES   REMARKS
RUIDOSO        NOT AVBL

$$
NMZ527>531-200100-
NORTHEAST HIGHLANDS/NORTHEAST PLAINS

CITY           SKY/WX    TMP DP  RH WIND       PRES   REMARKS
LAS VEGAS      FAIR      45  23  42 SW21      29.82R
6HR MIN TEMP:  45; 6HR MAX TEMP:  51;

RATON          MOCLDY    50  21  32 S23G32    29.71R
6HR MIN TEMP:  45; 6HR MAX TEMP:  55;

CLAYTON        FAIR      54  33  45 S21G29    29.77R
6HR MIN TEMP:  50; 6HR MAX TEMP:  56;


$$
NMZ532>537-200100-
EASTCENTRAL PLAINS

CITY           SKY/WX    TMP DP  RH WIND       PRES   REMARKS
TUCUMCARI      FAIR      60  26  27 SW17      29.78R
6HR MIN TEMP:  57; 6HR MAX TEMP:  61;

CANNON AFB     FAIR      55  27  33 S13       29.83S
6HR MIN TEMP:  55; 6HR MAX TEMP:  57;

CLOVIS AIRPORT FAIR      54  30  40 SW13      29.84S

$$
NMZ028-029-538-200100-
SOUTHEAST PLAINS

CITY           SKY/WX    TMP DP  RH WIND       PRES   REMARKS
ROSWELL        MOCLDY    62  23  22 W16         N/A
6HR MIN TEMP:  59; 6HR MAX TEMP:  64;

ARTESIA        FAIR      61  27  27 SW22      29.85R
CARLSBAD       FAIR      60  28  29 W21       29.85R
6HR MIN TEMP:  58; 6HR MAX TEMP:  65;

HOBBS          CLEAR     57  25  28 S9        29.87S


$$




USA.gov is the U.S. government's official web portal to all federal, state and local government web resources and services.